User: anonymous   Login
Location: Caltech
(34.1382°N, 118.1253°W)
Time: 04:38:13
(UTC-07:00)
Language:

Iridium 75 - Orbit

View from above orbital plane
View from above orbital plane
View from above satellite
View from above satellite

Ground track
Ground track

The orbit data is extracted from the following two-line orbital elements,

1 25346U 98032E   18115.41498908 -.00000023  00000-0 -15290-4 0  9999
2 25346  86.3932  93.6529 0002254  83.5617 276.5835 14.34213175 44421
Epoch (UTC): 25 April 2018 09:57:35
Eccentricity: 0.0002254
inclination: 86.3932°
perigee height: 776 km
apogee height: 779 km
right ascension of ascending node: 93.6529°
argument of perigee: 83.5617°
revolutions per day: 14.34213175
mean anomaly at epoch: 276.5835°
orbit number at epoch: 4442

The dashed part of the orbit path shows where the satellite is in the earth's shadow,  

DLR